DW5759 Weather Reports


time (UTC)temp
C
wind
direction
speed
KPH
gust
KPH
rain 1hr
cm
rain 24hr
cm
rain mn
cm
humidity
%
barometer
mb
20260508121507 8 158 0.0 0.0 0.00 0.00 0.00 73 1011.7
20260508120012 7 160 0.0 0.0 0.00 0.00 0.00 77 1011.8
20260508114517 6 149 0.0 0.0 0.00 0.00 0.00 78 1011.7
20260508113017 6 166 0.0 0.0 0.00 0.00 0.00 80 1011.5
20260508111516 6 201 0.0 1.6 0.00 0.00 0.00 79 1011.3
20260508110006 6 151 0.0 0.0 0.00 0.00 0.00 78 1011.3
20260508104508 6 151 0.0 0.0 0.00 0.00 0.00 78 1011.3
20260508103011 6 155 0.0 0.0 0.00 0.00 0.00 78 1011.2
20260508101513 6 351 0.0 0.0 0.00 0.00 0.00 76 1010.9
20260508100006 5 343 0.0 0.0 0.00 0.00 0.00 76 1010.8
20260508094507 5 343 0.0 0.0 0.00 0.00 0.00 77 1010.4
20260508093027 5 343 0.0 0.0 0.00 0.00 0.00 77 1010.4
20260508091510 5 300 0.0 0.0 0.00 0.00 0.00 78 1010.3
20260508090011 5 295 0.0 0.0 0.00 0.00 0.00 77 1010.2
20260508084508 5 348 0.0 0.0 0.00 0.00 0.00 77 1010.3
20260508083012 6 348 0.0 0.0 0.00 0.00 0.00 75 1010.4
20260508081513 6 357 0.0 0.0 0.00 0.00 0.00 74 1010.2
20260508080010 7 357 0.0 0.0 0.00 0.00 0.00 73 1010.0
20260508074516 7 357 0.0 0.0 0.00 0.00 0.00 72 1010.0
20260508073008 7 357 0.0 0.0 0.00 0.00 0.00 69 1009.9
20260508071513 7 357 0.0 0.0 0.00 0.00 0.00 69 1009.9
20260508070012 7 357 0.0 0.0 0.00 0.00 0.00 67 1009.9
20260508064514 7 357 0.0 0.0 0.00 0.00 0.00 66 1010.0
20260508063013 7 357 0.0 0.0 0.00 0.00 0.00 68 1010.1
20260508061515 7 357 0.0 0.0 0.00 0.00 0.00 72 1009.9
20260508060015 7 357 0.0 0.0 0.00 0.00 0.00 72 1010.1
20260508054512 7 351 0.0 0.0 0.00 0.00 0.00 73 1009.8
20260508053016 7 351 0.0 0.0 0.00 0.00 0.00 72 1009.2
20260508051517 7 351 0.0 0.0 0.00 0.00 0.00 74 1008.6
20260508050010 7 350 0.0 0.0 0.00 0.00 0.00 75 1009.0
20260508044515 7 282 0.0 0.0 0.00 0.00 0.00 73 1009.3
20260508043016 7 282 0.0 0.0 0.00 0.00 0.00 74 1009.2
20260508041517 7 282 0.0 0.0 0.00 0.00 0.00 75 1009.4
20260508040018 7 282 0.0 0.0 0.00 0.00 0.00 74 1009.3
20260508034517 7 282 0.0 0.0 0.00 0.00 0.00 74 1009.3
20260508033025 7 282 0.0 0.0 0.00 0.00 0.00 74 1009.5
20260508031519 7 282 0.0 0.0 0.00 0.00 0.00 72 1009.5
20260508030020 7 282 0.0 0.0 0.00 0.00 0.00 71 1009.4
20260508024520 7 282 0.0 0.0 0.00 0.00 0.00 70 1009.5
20260508023027 7 282 0.0 0.0 0.00 0.00 0.00 67 1009.4
20260508021521 8 282 0.0 0.0 0.00 0.00 0.00 66 1009.5
20260508020021 8 282 0.0 0.0 0.00 0.00 0.00 65 1009.3
20260508014520 8 283 0.0 0.0 0.00 0.00 0.00 64 1009.3
20260508013020 8 285 0.0 0.0 0.00 0.00 0.00 62 1009.2
20260508011517 8 296 0.0 0.0 0.00 0.00 0.00 62 1009.0
20260508010036 9 297 0.0 0.0 0.00 0.00 0.00 60 1008.9
20260508004523 10 1 0.0 0.0 0.00 0.00 0.00 60 1008.5
20260508003022 10 1 0.0 0.0 0.00 0.00 0.00 57 1008.4
20260508001530 11 1 0.0 0.0 0.00 0.00 0.00 54 1008.1
20260508000020 12 1 0.0 4.8 0.00 0.00 0.00 47 1007.9
20260507234524 13 293 0.0 0.0 0.00 0.00 0.00 48 1008.0
20260507233019 13 293 0.0 0.0 0.00 0.00 0.00 44 1007.9
20260507231522 13 269 0.0 6.4 0.00 0.00 0.00 44 1007.8
20260507230013 13 275 0.0 4.8 0.00 0.00 0.00 42 1007.6
20260507224528 13 257 0.0 12.9 0.00 0.00 0.00 41 1007.7
20260507223006 14 316 4.8 9.7 0.00 0.00 0.00 40 1007.7
20260507221505 14 23 0.0 1.6 0.00 0.00 0.00 41 1007.7
20260507220018 15 286 0.0 9.7 0.00 0.00 0.00 38 1007.8
20260507214521 15 290 3.2 12.9 0.00 0.00 0.00 39 1007.7
20260507213029 14 257 0.0 6.4 0.00 0.00 0.00 40 1007.7
20260507211504 15 279 0.0 11.3 0.00 0.00 0.00 40 1007.7
20260507210023 15 293 0.0 6.4 0.00 0.00 0.00 40 1007.6
20260507204513 15 340 3.2 11.3 0.00 0.03 0.00 39 1007.6
20260507203021 15 265 6.4 14.5 0.00 0.05 0.00 40 1007.5
20260507201520 15 281 1.6 16.1 0.00 0.05 0.00 39 1007.5
20260507200019 15 294 3.2 16.1 0.00 0.05 0.00 38 1007.6
20260507194512 15 287 1.6 14.5 0.00 0.05 0.00 39 1007.7
20260507193024 15 248 3.2 14.5 0.00 0.05 0.00 38 1007.8
20260507191511 15 298 3.2 12.9 0.00 0.05 0.00 39 1007.8
20260507190005 15 359 4.8 14.5 0.00 0.05 0.00 37 1008.2
20260507184511 15 315 0.0 11.3 0.00 0.05 0.00 37 1008.1
20260507183013 15 315 4.8 14.5 0.00 0.10 0.00 38 1008.2
20260507181520 15 290 1.6 12.9 0.00 0.15 0.00 40 1008.3
20260507180022 15 351 0.0 9.7 0.00 0.20 0.00 39 1008.5
20260507174506 15 313 3.2 12.9 0.00 0.23 0.00 40 1008.7
20260507173016 15 271 3.2 19.3 0.00 0.25 0.00 37 1008.9
20260507171513 15 233 3.2 14.5 0.00 0.30 0.00 40 1008.8
20260507170019 14 3 0.0 9.7 0.00 0.36 0.00 39 1008.9
20260507164524 13 6 0.0 11.3 0.00 0.41 0.00 39 1009.1
20260507163006 13 10 3.2 12.9 0.00 0.48 0.00 43 1009.1
20260507161519 13 309 3.2 12.9 0.00 0.53 0.00 44 1009.3
20260507160029 13 318 1.6 12.9 0.00 0.61 0.00 43 1010.0
20260507154522 13 290 1.6 9.7 0.00 0.66 0.00 43 1010.2
20260507153025 12 287 1.6 16.1 0.00 0.74 0.00 43 1010.3
20260507151511 12 244 6.4 11.3 0.00 0.81 0.00 44 1010.2
20260507150014 12 347 1.6 11.3 0.00 0.89 0.00 44 1010.4
20260507144529 12 278 4.8 14.5 0.00 0.91 0.00 45 1010.5
20260507143022 12 272 0.0 9.7 0.00 0.94 0.00 47 1010.6
20260507141528 11 286 0.0 3.2 0.00 0.97 0.00 48 1010.7
20260507140032 11 360 0.0 8.0 0.00 0.97 0.00 46 1010.8
20260507134502 11 15 0.0 11.3 0.00 0.97 0.00 48 1011.0
20260507133007 10 29 0.0 8.0 0.00 0.97 0.00 50 1011.1
20260507131529 10 360 3.2 11.3 0.00 0.97 0.00 48 1011.0
20260507130019 10 355 4.8 12.9 0.00 0.97 0.00 50 1011.0
20260507124516 9 6 0.0 17.7 0.00 0.97 0.00 56 1010.9
20260507123003 8 325 0.0 6.4 0.00 0.97 0.00 60 1010.8